Time,TemperatureF,DewpointF,PressureIn,WindDirection,WindDirectionDegrees,WindSpeedMPH,WindSpeedGustMPH,Humidity,HourlyPrecipIn,Conditions,Clouds,dailyrainin,SolarRadiationWatts/m^2,SoftwareType,DateUTC
2013-06-29 00:02:00,70.0,40.0,30.20,North,3,8.0,11.0,34,-99.99,,,-99.99,0.000000,,2013-06-29 07:02:00,
2013-06-29 00:10:00,69.0,40.0,30.21,NW,308,4.0,8.0,34,-99.99,,,-99.99,0.000000,,2013-06-29 07:10:00,
2013-06-29 00:53:00,69.0,40.0,30.21,NW,308,4.0,8.0,34,-99.99,,,-99.99,0.000000,,2013-06-29 07:53:00,
2013-06-29 01:01:00,69.0,40.0,30.21,NW,308,4.0,8.0,34,-99.99,,,-99.99,0.000000,,2013-06-29 08:01:00,
2013-06-29 01:10:00,64.0,38.0,30.22,South,178,4.0,6.0,39,-99.99,,,-99.99,0.000000,,2013-06-29 08:10:00,
2013-06-29 01:52:00,64.0,38.0,30.22,South,178,4.0,6.0,39,-99.99,,,-99.99,0.000000,,2013-06-29 08:52:00,
2013-06-29 02:02:00,64.0,38.0,30.22,South,178,4.0,6.0,39,-99.99,,,-99.99,0.000000,,2013-06-29 09:02:00,
2013-06-29 02:10:00,65.0,37.0,30.22,South,175,3.0,4.0,35,-99.99,,,-99.99,0.000000,,2013-06-29 09:10:00,
2013-06-29 02:53:00,65.0,37.0,30.22,South,175,3.0,4.0,35,-99.99,,,-99.99,0.000000,,2013-06-29 09:53:00,
2013-06-29 03:01:00,65.0,37.0,30.22,South,175,3.0,4.0,35,-99.99,,,-99.99,0.000000,,2013-06-29 10:01:00,
2013-06-29 03:10:00,59.0,37.0,30.22,SW,218,1.0,3.0,45,-99.99,,,-99.99,0.000000,,2013-06-29 10:10:00,
2013-06-29 03:52:00,59.0,37.0,30.22,SW,218,1.0,3.0,45,-99.99,,,-99.99,0.000000,,2013-06-29 10:52:00,
2013-06-29 04:01:00,59.0,37.0,30.22,SW,218,1.0,3.0,45,-99.99,,,-99.99,0.000000,,2013-06-29 11:01:00,
2013-06-29 04:10:00,55.0,37.0,30.22,North,351,1.0,3.0,51,-99.99,,,-99.99,0.000000,,2013-06-29 11:10:00,
2013-06-29 04:53:00,55.0,37.0,30.22,North,351,1.0,3.0,51,-99.99,,,-99.99,0.000000,,2013-06-29 11:53:00,
2013-06-29 05:02:00,55.0,37.0,30.22,North,351,1.0,3.0,51,-99.99,,,-99.99,0.000000,,2013-06-29 12:02:00,
2013-06-29 05:10:00,54.0,38.0,30.23,WSW,256,6.0,7.0,54,-99.99,,,-99.99,0.000000,,2013-06-29 12:10:00,
2013-06-29 05:52:00,54.0,38.0,30.23,WSW,256,6.0,7.0,54,-99.99,,,-99.99,0.000000,,2013-06-29 12:52:00,
2013-06-29 06:02:00,54.0,38.0,30.23,WSW,256,6.0,7.0,54,-99.99,,,-99.99,0.000000,,2013-06-29 13:02:00,
2013-06-29 06:10:00,61.0,38.0,30.23,SE,139,2.0,4.0,43,-99.99,,,-99.99,90.000000,,2013-06-29 13:10:00,
2013-06-29 06:53:00,61.0,38.0,30.23,SE,139,2.0,4.0,43,-99.99,,,-99.99,90.000000,,2013-06-29 13:53:00,
2013-06-29 07:02:00,61.0,38.0,30.23,SE,139,2.0,4.0,43,-99.99,,,-99.99,90.000000,,2013-06-29 14:02:00,
2013-06-29 07:53:00,63.0,40.0,30.24,SE,131,2.0,3.0,44,-99.99,,,-99.99,270.000000,,2013-06-29 14:53:00,
2013-06-29 08:01:00,63.0,40.0,30.24,SE,131,2.0,3.0,44,-99.99,,,-99.99,270.000000,,2013-06-29 15:01:00,
2013-06-29 08:10:00,73.0,41.0,30.22,SE,137,2.0,4.0,32,-99.99,,,-99.99,470.000000,,2013-06-29 15:10:00,
2013-06-29 08:53:00,73.0,41.0,30.22,SE,137,2.0,4.0,32,-99.99,,,-99.99,470.000000,,2013-06-29 15:53:00,
2013-06-29 09:01:00,73.0,41.0,30.22,SE,137,2.0,4.0,32,-99.99,,,-99.99,470.000000,,2013-06-29 16:01:00,
2013-06-29 09:10:00,77.0,44.0,30.21,SE,131,4.0,7.0,31,-99.99,,,-99.99,680.000000,,2013-06-29 16:10:00,
2013-06-29 09:53:00,77.0,44.0,30.21,SE,131,4.0,7.0,31,-99.99,,,-99.99,680.000000,,2013-06-29 16:53:00,
2013-06-29 10:01:00,77.0,44.0,30.21,SE,131,4.0,7.0,31,-99.99,,,-99.99,680.000000,,2013-06-29 17:01:00,
2013-06-29 10:52:00,82.0,47.0,30.19,East,84,3.0,5.0,29,-99.99,,,-99.99,840.000000,,2013-06-29 17:52:00,
2013-06-29 13:52:00,94.0,37.0,30.14,SE,141,5.0,16.0,14,-99.99,,,-99.99,530.000000,,2013-06-29 20:52:00,
2013-06-29 14:01:00,94.0,37.0,30.14,SE,141,5.0,16.0,14,-99.99,,,-99.99,530.000000,,2013-06-29 21:01:00,
2013-06-29 16:10:00,96.0,28.0,30.07,NW,306,4.0,8.0,9,-99.99,,,-99.99,670.000000,,2013-06-29 23:10:00,
2013-06-29 16:52:00,96.0,28.0,30.07,NW,306,4.0,8.0,9,-99.99,,,-99.99,670.000000,,2013-06-29 23:52:00,
2013-06-29 17:02:00,96.0,28.0,30.07,NW,306,4.0,8.0,9,-99.99,,,-99.99,670.000000,,2013-06-30 00:02:00,
2013-06-29 17:10:00,90.0,33.0,30.06,WNW,296,5.0,9.0,13,-99.99,,,-99.99,260.000000,,2013-06-30 00:10:00,
2013-06-29 17:52:00,90.0,33.0,30.06,WNW,296,5.0,9.0,13,-99.99,,,-99.99,260.000000,,2013-06-30 00:52:00,
2013-06-29 18:01:00,90.0,33.0,30.06,WNW,296,5.0,9.0,13,-99.99,,,-99.99,260.000000,,2013-06-30 01:01:00,
2013-06-29 18:53:00,88.0,33.0,30.06,WNW,303,8.0,15.0,14,-99.99,,,-99.99,130.000000,,2013-06-30 01:53:00,
2013-06-29 19:02:00,88.0,33.0,30.06,WNW,303,8.0,15.0,14,-99.99,,,-99.99,130.000000,,2013-06-30 02:02:00,
2013-06-29 19:10:00,84.0,30.0,30.05,West,269,5.0,7.0,14,-99.99,,,-99.99,20.000000,,2013-06-30 02:10:00,
2013-06-29 19:53:00,84.0,30.0,30.05,West,269,5.0,7.0,14,-99.99,,,-99.99,20.000000,,2013-06-30 02:53:00,
2013-06-29 20:01:00,84.0,30.0,30.05,West,269,5.0,7.0,14,-99.99,,,-99.99,20.000000,,2013-06-30 03:01:00,